Regional Weather Roundup
Issued by NWS

Home | Current Version | Previous Version | Graphics & Text | Print | Product List | Glossary On
Versions: 1 2 3 4 5 6 7 8 9 10 11 12 13 14 15 16 17 18 19 20 21 22 23 24 25 26 27 28 29 30 31 32 33 34 35 36 37 38 39 40 41 42 43 44 45 46 47 48 49 50
000
ASUS45 KCYS 040110
RWRWY

WYOMING REGIONAL WEATHER ROUNDUP
NATIONAL WEATHER SERVICE CHEYENNE WY
700 PM MDT FRI JUL 03 2015

NOTE:  "FAIR" INDICATES FEW OR NO CLOUDS BELOW 12,000 FEET
WITH NO SIGNIFICANT WEATHER AND/OR OBSTRUCTIONS TO VISIBILITY.

WYZ001-040200-
YELLOWSTONE NATIONAL PARK

CITY           SKY/WX    TMP DP  RH WIND       PRES   REMARKS
LK YELLOWSTONE   N/A     76  35  22 VRB5      30.20F
W YELLOWSTONE  NOT AVBL

$$
WYZ002>013-054>058-071-098>099-040200-
NORTHERN WYOMING

CITY           SKY/WX    TMP DP  RH WIND       PRES   REMARKS
JACKSON        FAIR      82  41  23 W7        30.06F
CODY           FAIR      81  54  39 CALM      29.98S
GREYBULL       FAIR      90  46  21 S16       29.85F
WORLAND        TSTM      75  59  57 NW17G29   29.90R
SHERIDAN       FAIR      87  54  32 NE3       29.91S
BUFFALO        FAIR      81  54  39 S7        30.00S
GILLETTE       FAIR      81  55  40 SE16G23   29.94F
HULETT         FAIR      79  63  57 E12       29.98S
NEWCASTLE      FAIR      79  50  36 SE7       29.99F

$$
WYZ014>020-022>026-101>103-040200-
CENTRAL WYOMING

CITY           SKY/WX    TMP DP  RH WIND       PRES   REMARKS
BIG PINEY      FAIR      84  39  20 N15       30.13F
PINEDALE       FAIR      81  37  21 W17G24    30.14F
DUBOIS         FAIR      81  32  17 N18G24    30.11F
LANDER         FAIR      87  48  25 E9        29.94S
RIVERTON       FAIR      91  42  18 W7        29.94F
CASPER         FAIR      76  51  41 S14       29.99F
DOUGLAS        FAIR      79  55  43 SE12      30.01F

$$
WYZ021-027>030-104>119-040200-
SOUTHERN WYOMING

CITY           SKY/WX    TMP DP  RH WIND       PRES   REMARKS
EVANSTON       FAIR      85  37  18 NW14      30.15F
KEMMERER       FAIR     N/A N/A N/A NW13      30.17S
FORT BRIDGER   CLEAR     88  34  14 NW13G22   30.16S
ROCK SPRINGS   FAIR      85  36  17 NW10      30.08F
DIXON          FAIR      86  36  16 CALM      30.10F
RAWLINS        FAIR      79  41  25 E13G21    30.10F
SARATOGA       FAIR      82  32  16 E3        30.13S
LARAMIE        FAIR      71  44  37 E21G31    30.18R
CHEYENNE       FAIR      74  45  35 SE13      30.11F
TORRINGTON     FAIR      82  57  42 SE13      29.98F
PINE BLUFFS    FAIR      77  55  47 S6        30.09R

$$


USA.gov is the U.S. government's official web portal to all federal, state and local government web resources and services.